Location: ??????
(38.0677°N, 22.9870°E)
Time: 09:48:45
(UTC+00:00)

Cosmos 2333 - Pass Details

Date: 23 May 2024
Orbit: 828 x 866 km, 70.9° (Epoch: 23 June)

Event Time Altitude Azimuth Distance (km) Brightness Sun altitude
Rises 01:46:37 0° 334° (NNW) 3,428 7.6 -14.6°
Reaches altitude 10° 01:49:04 10° 333° (NNW) 2,493 6.8 -14.2°
Maximum altitude 01:54:46 69° 251° (WSW) 918 4.2 -13.4°
Drops below altitude 10° 02:00:28 10° 169° (SSE) 2,495 6.4 -12.5°
Sets 02:02:56 0° 167° (SSE) 3,430 7.1 -12.1°
